Estación de Colegual INIA
Ultimos registro cada 15 minutos 85
| N° | Estación | Fecha / Hora | Temperatura | Humedad | Lluvia | Velocidad | Dirección | Radiación | Presion |
| 85 | Colegual INIA | 08-05-2026 21:00 | 4,8 | 88,3 | 0 | 0,2 | 69 | 0 | 1008 |
| 84 | Colegual INIA | 08-05-2026 20:45 | 5 | 88,1 | 0 | 0 | 350 | 0 | 1007 |
| 83 | Colegual INIA | 08-05-2026 20:30 | 4,8 | 88,3 | 0 | 0 | 311 | 0 | 1007 |
| 82 | Colegual INIA | 08-05-2026 20:15 | 5,1 | 87,3 | 0 | 0,2 | 71 | 0 | 1007 |
| 81 | Colegual INIA | 08-05-2026 20:00 | 5,7 | 86,4 | 0 | 0,5 | 73 | 0 | 1007 |
| 80 | Colegual INIA | 08-05-2026 19:45 | 5,8 | 84,4 | 0 | 0,3 | 324 | 0 | 1007 |
| 79 | Colegual INIA | 08-05-2026 19:30 | 5,5 | 86,1 | 0 | 0,2 | 316 | 0 | 1007 |
| 78 | Colegual INIA | 08-05-2026 19:15 | 5,2 | 87,1 | 0 | 0,1 | 331 | 0 | 1007 |
| 77 | Colegual INIA | 08-05-2026 19:00 | 5,5 | 86,1 | 0 | 0,3 | 65 | 0 | 1007 |
| 76 | Colegual INIA | 08-05-2026 18:45 | 6,2 | 82,9 | 0 | 0,6 | 71 | 0 | 1006 |
| 75 | Colegual INIA | 08-05-2026 18:30 | 6,7 | 81,4 | 0 | 1,3 | 76 | 0 | 1006 |
| 74 | Colegual INIA | 08-05-2026 18:15 | 6,8 | 81,7 | 0 | 1,2 | 75 | 1 | 1006 |
| 73 | Colegual INIA | 08-05-2026 18:00 | 7,6 | 78,5 | 0 | 1,4 | 76 | 4 | 1006 |
| 72 | Colegual INIA | 08-05-2026 17:45 | 8,7 | 73,4 | 0 | 1,2 | 79 | 15 | 1005 |
| 71 | Colegual INIA | 08-05-2026 17:30 | 9,4 | 72,1 | 0 | 1,4 | 76 | 42 | 1005 |
| 70 | Colegual INIA | 08-05-2026 17:15 | 10,4 | 66,9 | 0 | 0,9 | 79 | 77 | 1005 |
| 69 | Colegual INIA | 08-05-2026 17:00 | 10,8 | 64 | 0 | 0,5 | 296 | 110 | 1005 |
| 68 | Colegual INIA | 08-05-2026 16:45 | 11 | 64,3 | 0 | 0,8 | 328 | 142 | 1005 |
| 67 | Colegual INIA | 08-05-2026 16:30 | 11,2 | 65,3 | 0 | 1,3 | 353 | 173 | 1004 |
| 66 | Colegual INIA | 08-05-2026 16:15 | 11,4 | 66 | 0 | 1,5 | 64 | 206 | 1004 |
| 65 | Colegual INIA | 08-05-2026 16:00 | 11,5 | 67,8 | 0 | 2,2 | 67 | 237 | 1004 |
| 64 | Colegual INIA | 08-05-2026 15:45 | 11,6 | 67,3 | 0 | 1,7 | 68 | 269 | 1004 |
| 63 | Colegual INIA | 08-05-2026 15:30 | 11,5 | 67,2 | 0 | 1,5 | 1 | 300 | 1004 |
| 62 | Colegual INIA | 08-05-2026 15:15 | 11,6 | 68,3 | 0 | 1,5 | 57 | 327 | 1003 |
| 61 | Colegual INIA | 08-05-2026 15:00 | 11,5 | 72,5 | 0 | 2,4 | 65 | 351 | 1003 |
| 60 | Colegual INIA | 08-05-2026 14:45 | 11,4 | 69,3 | 0 | 2,1 | 53 | 375 | 1003 |
| 59 | Colegual INIA | 08-05-2026 14:30 | 11,2 | 73,4 | 0 | 1,6 | 355 | 396 | 1003 |
| 58 | Colegual INIA | 08-05-2026 14:15 | 10,8 | 71,2 | 0 | 1,9 | 321 | 414 | 1003 |
| 57 | Colegual INIA | 08-05-2026 14:00 | 10,5 | 74,2 | 0 | 1,6 | 9 | 383 | 1003 |
| 56 | Colegual INIA | 08-05-2026 13:45 | 10,7 | 77,2 | 0 | 1,7 | 53 | 268 | 1002 |
| 55 | Colegual INIA | 08-05-2026 13:30 | 10,5 | 72,5 | 0 | 2,7 | 69 | 429 | 1003 |
| 54 | Colegual INIA | 08-05-2026 13:15 | 10,2 | 77,4 | 0 | 2,8 | 51 | 393 | 1003 |
| 53 | Colegual INIA | 08-05-2026 13:00 | 9,5 | 82,7 | 0 | 3,1 | 60 | 386 | 1003 |
| 52 | Colegual INIA | 08-05-2026 12:45 | 9,6 | 80,5 | 0 | 2 | 43 | 252 | 1003 |
| 51 | Colegual INIA | 08-05-2026 12:30 | 9,5 | 83,3 | 0 | 1,3 | 34 | 403 | 1003 |
| 50 | Colegual INIA | 08-05-2026 12:15 | 8,2 | 90,6 | 0 | 1,1 | 62 | 190 | 1003 |
| 49 | Colegual INIA | 08-05-2026 12:00 | 8 | 92,5 | 0 | 1 | 20 | 121 | 1003 |
| 48 | Colegual INIA | 08-05-2026 11:45 | 7,9 | 94,5 | 0 | 0,8 | 64 | 132 | 1002 |
| 47 | Colegual INIA | 08-05-2026 11:30 | 7,5 | 96 | 0 | 1,1 | 67 | 92 | 1002 |
| 46 | Colegual INIA | 08-05-2026 11:15 | 7,5 | 95,4 | 0 | 1,9 | 64 | 80 | 1002 |
| 45 | Colegual INIA | 08-05-2026 11:00 | 7,4 | 95,5 | 0 | 1,3 | 69 | 113 | 1002 |
| 44 | Colegual INIA | 08-05-2026 10:45 | 7,2 | 96,8 | 0 | 0,6 | 59 | 102 | 1002 |
| 43 | Colegual INIA | 08-05-2026 10:30 | 7,1 | 97,7 | 0 | 1 | 72 | 87 | 1002 |
| 42 | Colegual INIA | 08-05-2026 10:15 | 7 | 97,7 | 0 | 0,5 | 64 | 69 | 1002 |
| 41 | Colegual INIA | 08-05-2026 10:00 | 7 | 98,2 | 0 | 0,2 | 29 | 65 | 1002 |
| 40 | Colegual INIA | 08-05-2026 09:45 | 6,7 | 98,5 | 0 | 0 | 52 | 82 | 1001 |
| 39 | Colegual INIA | 08-05-2026 09:30 | 6,4 | 98,3 | 0 | 0,2 | 60 | 72 | 1001 |
| 38 | Colegual INIA | 08-05-2026 09:15 | 6,3 | 98 | 0 | 0,2 | 63 | 56 | 1001 |
| 37 | Colegual INIA | 08-05-2026 09:00 | 6,2 | 98,4 | 0 | 0,1 | 64 | 48 | 1001 |
| 36 | Colegual INIA | 08-05-2026 08:45 | 6 | 98,8 | 0 | 0 | 71 | 37 | 1001 |
| 35 | Colegual INIA | 08-05-2026 08:30 | 6 | 99,1 | 0 | 0,1 | 59 | 20 | 1001 |
| 34 | Colegual INIA | 08-05-2026 08:15 | 5,9 | 99,4 | 0 | 0,3 | 1 | 10 | 1000 |
| 33 | Colegual INIA | 08-05-2026 08:00 | 5,9 | 99,8 | 0 | 0,2 | 0 | 3 | 1000 |
| 32 | Colegual INIA | 08-05-2026 07:45 | 5,9 | 99,6 | 0 | 0,1 | 355 | 1 | 1000 |
| 31 | Colegual INIA | 08-05-2026 07:30 | 5,9 | 99,5 | 0 | 0 | 337 | 0 | 1000 |
| 30 | Colegual INIA | 08-05-2026 07:15 | 5,9 | 99,7 | 0 | 0,3 | 358 | 0 | 1000 |
| 29 | Colegual INIA | 08-05-2026 07:00 | 5,8 | 99,6 | 0 | 0,1 | 345 | 0 | 1000 |
| 28 | Colegual INIA | 08-05-2026 06:45 | 5,7 | 99,5 | 0,1 | 0,1 | 334 | 0 | 1000 |
| 27 | Colegual INIA | 08-05-2026 06:30 | 5,8 | 99,4 | 0 | 0 | 342 | 0 | 999 |
| 26 | Colegual INIA | 08-05-2026 06:15 | 5,8 | 99,7 | 0 | 0 | 357 | 0 | 999 |
| 25 | Colegual INIA | 08-05-2026 06:00 | 6,1 | 99,8 | 0 | 0,6 | 342 | 0 | 999 |
| 24 | Colegual INIA | 08-05-2026 05:45 | 6,4 | 99,8 | 0 | 0,2 | 343 | 0 | 999 |
| 23 | Colegual INIA | 08-05-2026 05:30 | 6,4 | 99,6 | 0,1 | 0 | 326 | 0 | 999 |
| 22 | Colegual INIA | 08-05-2026 05:15 | 6,4 | 99,9 | 0 | 0 | 292 | 0 | 998 |
| 21 | Colegual INIA | 08-05-2026 05:00 | 6,3 | 99,5 | 0 | 0 | 0 | 0 | 998 |
| 20 | Colegual INIA | 08-05-2026 04:45 | 6,3 | 99,7 | 0 | 0 | 285 | 0 | 998 |
| 19 | Colegual INIA | 08-05-2026 04:30 | 6,2 | 99,6 | 0,1 | 0,2 | 297 | 0 | 999 |
| 18 | Colegual INIA | 08-05-2026 04:15 | 6,2 | 99,5 | 0 | 0,2 | 293 | 0 | 998 |
| 17 | Colegual INIA | 08-05-2026 04:00 | 6 | 99,4 | 0 | 0,2 | 286 | 0 | 998 |
| 16 | Colegual INIA | 08-05-2026 03:45 | 5,9 | 99,5 | 0 | 0,1 | 296 | 0 | 999 |
| 15 | Colegual INIA | 08-05-2026 03:30 | 5,8 | 99,4 | 0 | 0,7 | 270 | 0 | 998 |
| 14 | Colegual INIA | 08-05-2026 03:15 | 5,8 | 99,3 | 0,1 | 0,6 | 258 | 0 | 998 |
| 13 | Colegual INIA | 08-05-2026 03:00 | 5,7 | 99,1 | 0,1 | 1,6 | 275 | 0 | 999 |
| 12 | Colegual INIA | 08-05-2026 02:45 | 5,6 | 98,8 | 0,2 | 0,8 | 267 | 0 | 999 |
| 11 | Colegual INIA | 08-05-2026 02:30 | 5,6 | 98,4 | 0 | 1,3 | 286 | 0 | 999 |
| 10 | Colegual INIA | 08-05-2026 02:15 | 5,6 | 98,1 | 0 | 2 | 272 | 0 | 999 |
| 9 | Colegual INIA | 08-05-2026 02:00 | 5,6 | 98,4 | 0 | 2,6 | 263 | 0 | 998 |
| 8 | Colegual INIA | 08-05-2026 01:45 | 5,6 | 98,4 | 0 | 3 | 260 | 0 | 998 |
| 7 | Colegual INIA | 08-05-2026 01:30 | 5,6 | 98,5 | 0 | 2,8 | 263 | 0 | 998 |
| 6 | Colegual INIA | 08-05-2026 01:15 | 5,6 | 98,3 | 0 | 3,3 | 261 | 0 | 999 |
| 5 | Colegual INIA | 08-05-2026 01:00 | 5,5 | 98,5 | 0 | 3,4 | 262 | 0 | 999 |
| 4 | Colegual INIA | 08-05-2026 00:45 | 5,5 | 98,6 | 0,1 | 3,4 | 261 | 0 | 999 |
| 3 | Colegual INIA | 08-05-2026 00:30 | 5,6 | 98,4 | 0 | 3,3 | 269 | 0 | 999 |
| 2 | Colegual INIA | 08-05-2026 00:15 | 5,6 | 98,4 | 0,1 | 3 | 266 | 0 | 999 |
| 1 | Colegual INIA | 08-05-2026 00:00 | 5,6 | 98,3 | 0,1 | 3,2 | 264 | 0 | 999 |